Flag for U.S.A. Weather past 2 weeks in Bowling Green, Kentucky, U.S.A.

Now
30 °F

Overcast.


Feels Like: 30 °F
Forecast: 30 / 39 °F
Wind: No wind

Location: Glasgow Municipal Airport

Current Time: Dec 18, 2014 at 5:35:44 AM

Latest Report: Dec 18, 2014 at 5:15 AM


Visibility: 7 mi

Pressure: 30.26 "Hg

Humidity: 85%

Dew point: 26 °F

Location of Bowling GreenLocation

Historic Weather in Bowling Green — Graph

°F

Bowling Green temperature yesterday

Maximum temperature yesterday: 40 °F (at 1:15 PM)
Minimum temperature yesterday: 25 °F (at 11:55 PM)
Average temperature yesterday: 34 °F

Past Weeks' High & Low Weather Summary

 TemperatureHumidityPressure
High62 °F (Dec 5, 2:55 PM)100% (Dec 3, 4:15 AM)30.52 "Hg (Dec 3, 4:15 AM)
Low20 °F (Dec 12, 6:55 AM)49% (Dec 12, 2:55 PM)29.78 "Hg (Dec 16, 2:55 AM)
Average41 °F81%30.23 "Hg
* Reported Dec 3 4:15 AM — Dec 18 4:15 AM, Bowling Green, Weather by CustomWeather, © 2014

Note: Actual official high and low records may vary slightly from our data, if they occured in-between our weather recording intervals... More about our weather records

Advertising

Bowling Green weather history for previous 24 hours

 ConditionsComfort  
Time TempWeatherWind HumidityBarometerVisibility
4:15 AM
Dec 18
30 °FLight snow. Mostly cloudy.No wind85%30.24 "Hg7 mi
3:55 AM30 °FLight snow. Overcast.5 mph84%30.25 "Hg7 mi
3:35 AM30 °FLight snow. Overcast.No wind84%30.26 "Hg7 mi
3:15 AM30 °FOvercast.No wind84%30.26 "Hg10 mi
2:55 AM29 °FMostly cloudy.No wind84%30.27 "Hg10 mi
2:35 AM29 °FOvercast.No wind85%30.27 "Hg10 mi
2:15 AM29 °FPassing clouds.No wind85%30.28 "Hg10 mi
1:55 AM29 °FPassing clouds.No wind86%30.29 "Hg10 mi
1:35 AM29 °FClear.No wind88%30.28 "Hg10 mi
1:15 AM28 °FClear.3 mph90%30.27 "Hg10 mi
12:55 AM26 °FClear.No wind97%30.26 "Hg7 mi
12:15 AM26 °FClear.No wind91%30.27 "Hg10 mi
11:55 PM
Dec 17
25 °FClear.No wind92%30.27 "Hg10 mi
11:35 PM27 °FClear.No wind98%30.26 "Hg10 mi
11:15 PM26 °FClear.No wind89%30.26 "Hg10 mi
10:55 PM27 °FClear.No wind89%30.26 "Hg10 mi
10:35 PM26 °FClear.No wind90%30.26 "Hg10 mi
10:15 PM26 °FClear.No wind89%30.26 "Hg10 mi
9:15 PM30 °FClear.No wind83%30.26 "Hg10 mi
8:55 PM28 °FClear.3 mph86%30.27 "Hg10 mi
8:35 PM29 °FClear.5 mph84%30.27 "Hg10 mi
8:15 PM29 °FClear.5 mph85%30.27 "Hg10 mi
7:55 PM29 °FClear.No wind85%30.27 "Hg10 mi
7:35 PM30 °FClear.No wind83%30.27 "Hg10 mi
7:15 PM30 °FClear.No wind83%30.26 "Hg10 mi
6:35 PM32 °FClear.No wind78%30.26 "Hg10 mi
6:15 PM33 °FClear.3 mph75%30.26 "Hg10 mi
5:55 PM33 °FClear.No wind75%30.25 "Hg10 mi
5:35 PM34 °FClear.No wind74%30.25 "Hg10 mi
5:15 PM34 °FClear.No wind74%30.25 "Hg10 mi
4:55 PM35 °FClear.No wind71%30.24 "Hg10 mi
4:15 PM37 °FSunny.3 mph68%30.25 "Hg10 mi
3:55 PM37 °FSunny.3 mph67%30.25 "Hg10 mi
3:35 PM38 °FSunny.5 mph64%30.24 "Hg10 mi
3:15 PM38 °FSunny.5 mph64%30.23 "Hg10 mi
2:55 PM39 °FSunny.6 mph64%30.23 "Hg10 mi
2:35 PM40 °FSunny.5 mph61%30.23 "Hg10 mi
2:15 PM40 °FSunny.5 mph61%30.23 "Hg10 mi
1:55 PM40 °FSunny.7 mph63%30.23 "Hg10 mi
1:35 PM40 °FSunny.7 mph63%30.23 "Hg10 mi
1:15 PM40 °FScattered clouds.6 mph61%30.23 "Hg10 mi
12:55 PM40 °FScattered clouds.6 mph61%30.24 "Hg10 mi
12:35 PM38 °FScattered clouds.No wind67%30.23 "Hg10 mi
12:15 PM38 °FOvercast.No wind65%30.24 "Hg10 mi
11:55 AM38 °FPartly sunny.No wind66%30.26 "Hg10 mi
11:35 AM37 °FOvercast.No wind70%30.27 "Hg10 mi
11:15 AM37 °FOvercast.3 mph69%30.28 "Hg10 mi
10:55 AM35 °FOvercast.5 mph72%30.29 "Hg10 mi
10:35 AM35 °FOvercast.No wind74%30.31 "Hg10 mi
10:15 AM35 °FOvercast.No wind74%30.32 "Hg10 mi
9:55 AM34 °FOvercast.3 mph76%30.31 "Hg10 mi
9:35 AM34 °FOvercast.3 mph75%30.32 "Hg10 mi
9:15 AM34 °FOvercast.5 mph76%30.32 "Hg10 mi
8:55 AM33 °FOvercast.6 mph78%30.32 "Hg10 mi
8:35 AM33 °FOvercast.3 mph79%30.31 "Hg10 mi
8:15 AM33 °FOvercast.5 mph80%30.30 "Hg10 mi
7:55 AM33 °FOvercast.5 mph81%30.30 "Hg10 mi
7:35 AM33 °FOvercast.6 mph81%30.29 "Hg10 mi
7:15 AM33 °FOvercast.7 mph82%30.28 "Hg10 mi
6:55 AM33 °FOvercast.7 mph84%30.27 "Hg10 mi
6:35 AM33 °FOvercast.6 mph86%30.26 "Hg10 mi
6:15 AM34 °FOvercast.6 mph84%30.26 "Hg10 mi
5:55 AM34 °FOvercast.5 mph84%30.26 "Hg10 mi
5:35 AM34 °FOvercast.6 mph87%30.27 "Hg10 mi
5:15 AM35 °FOvercast.5 mph86%30.26 "Hg10 mi
Weather by CustomWeather, © 2014

See weather overviewHow to use our weather pages